User: anonymous   Login
Location: Ellerstadt
(49.4644°N, 8.2615°E)
Time: 17:00:16
(UTC+00:00)
Language:

Cosmos 2369 Rocket - Orbit

View from above orbital plane
View from above orbital plane
View from above satellite
View from above satellite

Ground track
Ground track

The orbit data is extracted from the following two-line orbital elements,

1 26070U 00006B   21129.23398490 -.00000090  00000-0 -21419-4 0  9996
2 26070  71.0034 208.6594 0017276 340.9108  19.1366 14.15477320 98731
Epoch (UTC): 09 May 2021 05:36:56
Eccentricity: 0.0017276
inclination: 71.0034°
perigee height: 828 km
apogee height: 853 km
right ascension of ascending node: 208.6594°
argument of perigee: 340.9108°
revolutions per day: 14.15477320
mean anomaly at epoch: 19.1366°
orbit number at epoch: 9873

The dashed part of the orbit path shows where the satellite is in the earth's shadow,  

DLR